[[{"header":{"parameterUnit":"m.s-1","parameterCategory":1,"la1":30.2991,"la2":30.254,"lo1":-89.0895,"lo2":-89.0444,"dy":0.0017,"dx":0.0017,"nx":28,"ny":28,"refTime":"2023-08-17T09:00:00:Z","depth":0,"parameterNumber":2,"parameterNumberName":"U-component_of_WINDS"},"data":[0,0,0,0,0,0,0,0,0,0,0,0,0,0,0,0,0,0,0,0,0,0,0,0,0,0,0,0,0,0,0,0,0,0,0,0,0,0,0,0,0,0,0,0,0,0,0,0,0,0,0,0,0,0,0,0,0,0,2.4004,2.4004,0,2.4027,2.4027,2.4027,2.3975,2.3973,2.3972,2.397,2.3994,2.3996,2.3998,0,0,0,0,0,0,0,0,0,0,0,0,0,2.3914,2.3916,2.4004,2.4004,2.4004,2.4027,2.4027,2.4027,2.3975,2.3973,2.3971,2.3969,2.3993,2.3996,2.3998,0,0,0,0,0,0,0,0,0,0,0,0,0,2.3947,2.3917,2.4004,2.3981,2.3979,2.4027,2.4027,2.4027,2.3976,2.3973,2.3971,2.3968,2.3992,2.3996,2.3999,2.4069,0,0,2.4009,2.401,0,0,0,0,0,0,0,0,2.3945,2.395,2.3984,2.3983,2.3981,2.3995,2.4004,2.4041,2.3976,2.3977,2.397,2.3967,2.3996,2.3999,2.4009,2.407,2.4072,2.4009,2.4011,2.4013,2.4014,0,0,0,0,0,0,0,2.3943,2.3949,2.4013,2.3985,2.3983,2.3969,2.3971,2.4011,2.4001,2.3977,2.3973,2.3976,2.3995,2.4006,2.4009,2.4072,2.4009,2.4012,2.4014,2.4015,2.4189,2.4191,0,0,0,0,0,0,2.3944,2.3947,2.4012,2.4014,2.3956,2.3973,2.3975,2.3993,2.4,2.3999,2.3978,2.3974,2.4002,2.4005,2.401,2.409,2.4013,2.4016,2.4018,2.4186,2.4189,2.4192,0,0,0,0,0,0,2.3942,2.395,2.4011,2.3979,2.3986,2.3977,2.3998,2.3995,2.4006,2.4001,2.3999,2.3992,2.4,2.4005,2.4054,2.409,2.4017,2.402,2.4183,2.4187,2.4191,2.4253,0,0,0,0,0,0,2.3939,2.395,2.3977,2.398,2.3988,2.4056,2.4,2.3997,2.4012,2.4006,2.4013,2.4012,2.3998,2.4049,2.4057,2.4093,2.4023,2.4179,2.4185,2.4189,2.4247,2.4258,2.4268,0,0,0,0,0,2.3936,2.3994,2.3978,2.3986,2.4022,2.4058,2.4062,2.4045,2.4015,2.4041,2.4038,2.4012,2.4085,2.4055,2.4063,2.4101,2.4177,2.4183,2.4189,2.4243,2.4256,2.4267,0,0,0,0,0,0,2.3996,2.3994,2.3977,2.4038,2.4048,2.4049,2.4082,2.406,2.408,2.4074,2.4052,2.4054,2.4106,2.4109,2.4075,2.4168,2.4126,2.4134,2.4164,2.4177,2.4187,2.4184,2.4025,0,0,0,0,0,2.4016,2.4046,2.4043,2.4096,2.4103,2.4092,2.4107,2.4092,2.4103,2.4107,2.4107,2.4118,2.4143,2.416,2.4184,2.4248,2.4247,2.4278,2.4288,2.4296,2.4303,2.4334,2.4346,2.4211,2.4211,2.4211,0,0,2.4058,2.4061,2.4081,2.4108,2.4115,2.4145,2.4096,2.413,2.4152,2.4112,2.4157,2.4158,2.4169,2.4224,2.4249,2.4228,2.434,2.4304,2.431,2.4312,2.4341,2.4354,2.4365,2.4215,2.4215,2.4214,0,0,2.4149,2.4156,2.4199,2.4206,2.4216,2.4208,2.4219,2.4222,2.4221,2.4266,2.4235,2.4261,2.4306,2.4313,2.4323,2.4415,2.439,2.4423,2.4475,2.4506,2.4516,2.4526,2.4555,2.4567,2.443,2.443,2.443,0,2.42,2.4244,2.4225,2.426,2.4272,2.4237,2.428,2.4288,2.4305,2.4314,2.429,2.4343,2.4348,2.4404,2.4426,2.4436,2.4446,2.4421,2.4516,2.4526,2.4534,2.4562,2.4574,2.4434,2.4434,2.4433,2.4433,0,2.4304,2.4335,2.437,2.4385,2.4401,2.4441,2.4426,2.4445,2.4429,2.4423,2.4468,2.4472,2.4494,2.4507,2.4493,2.456,2.4546,2.452,2.4477,2.4551,2.4576,2.4587,2.4439,2.4438,2.4437,2.4436,0,0,2.4434,2.4437,2.4449,2.4454,2.4462,2.4485,2.4522,2.4543,2.4558,2.4571,2.46,2.4638,2.4612,2.4624,2.461,2.4637,2.4705,2.4607,2.4607,2.4623,2.4776,2.4794,2.4807,2.469,2.4692,2.4693,2.4774,0,2.4521,2.4584,2.4566,2.4629,2.4655,2.4621,2.4653,2.466,2.4656,2.4677,2.4672,2.4698,2.4665,2.4671,2.4696,2.4692,2.4735,2.4686,2.4715,2.4716,2.471,2.4821,2.484,2.4916,2.4784,2.4786,2.4787,0,2.4632,2.4647,2.4711,2.4711,2.4722,2.4751,2.4766,2.4788,2.4795,2.479,2.4801,2.4781,2.4816,2.4775,2.4822,2.4788,2.4799,2.4799,2.4801,2.4801,2.4755,2.4821,2.494,2.495,2.4804,2.4803,2.4801,0,2.4716,2.4753,2.4795,2.4801,2.4803,2.4823,2.4825,2.483,2.4842,2.4857,2.4864,2.4883,2.4893,2.4907,2.4892,2.4864,2.4941,2.4898,2.4935,2.4936,2.4951,2.495,2.5071,2.4963,2.4963,2.4963,2.4963,0,2.4814,2.4854,2.4832,2.4858,2.4901,2.488,2.4924,2.4922,2.4926,2.495,2.4923,2.4946,2.4926,2.4947,2.4936,2.4975,2.498,2.4976,2.4972,2.4977,2.4977,2.4982,2.4975,2.4966,2.4965,2.4965,2.4964,0,2.4914,2.4901,2.4944,2.4942,2.4942,2.4974,2.4971,2.4995,2.4987,2.5018,2.5024,2.5013,2.5036,2.5023,2.5048,2.504,2.509,2.508,2.5087,2.5083,2.512,2.5115,2.5246,2.5261,2.5146,2.5147,2.5148,0,2.4976,2.5005,2.5005,2.5019,2.5022,2.5045,2.5057,2.5038,2.5051,2.506,2.5082,2.5102,2.5118,2.5157,2.515,2.5168,2.5157,2.5202,2.516,2.5163,2.5154,2.5152,2.5153,2.521,2.5211,2.5212,2.5213,0,2.5086,2.5078,2.5096,2.5111,2.5125,2.5137,2.5146,2.5159,2.5139,2.5156,2.5179,2.519,2.5214,2.5234,2.5249,2.5251,2.5228,2.5226,2.5235,2.5239,2.5241,2.5237,2.5107,2.5223,2.5222,2.5221,2.5221,2.522,2.5167,2.5191,2.5193,2.5213,2.5218,2.5226,2.5247,2.5241,2.526,2.5276,2.5265,2.5291,2.5295,2.5312,2.5317,2.5336,2.5318,2.5332,2.5335,2.5338,2.5342,2.524,2.534,2.5339,2.5339,2.5339,2.5339,0,2.5274,2.5273,2.5292,2.5304,2.5319,2.5296,2.5305,2.5319,2.5342,2.5348,2.5363,2.5387,2.5406,2.5401,2.5418,2.5435,2.5425,2.544,2.5437,2.5437,2.5358,2.5347,2.5447,2.5447,2.5447,2.5447,2.5447,2.5447,2.533,2.5367,2.5359,2.5397,2.5397,2.5421,2.5427,2.5434,2.5438,2.5467,2.5482,2.5478,2.5479,2.5495,2.5511,2.5509,2.5515,2.5533,2.5527,2.5454,2.5443,2.5433,2.5422,2.5536,2.5536,2.5604,2.5604,2.5605]},{"header":{"parameterUnit":"m.s-1","parameterCategory":1,"la1":30.2991,"la2":30.254,"lo1":-89.0895,"lo2":-89.0444,"dy":0.0017,"dx":0.0017,"nx":28,"ny":28,"refTime":"2023-08-17T09:00:00:Z","depth":0,"parameterNumber":3,"parameterNumberName":"V-component_of_WINDS"},"data":[0,0,0,0,0,0,0,0,0,0,0,0,0,0,0,0,0,0,0,0,0,0,0,0,0,0,0,0,0,0,0,0,0,0,0,0,0,0,0,0,0,0,0,0,0,0,0,0,0,0,0,0,0,0,0,0,0,0,4.7237,4.7238,0,4.7347,4.7348,4.735,4.7318,4.7315,4.7313,4.7311,4.7416,4.742,4.7425,0,0,0,0,0,0,0,0,0,0,0,0,0,4.699,4.6995,4.7237,4.7239,4.724,4.7347,4.7348,4.735,4.7318,4.7315,4.7313,4.731,4.7414,4.742,4.7426,0,0,0,0,0,0,0,0,0,0,0,0,0,4.7099,4.6997,4.7237,4.7237,4.7238,4.7347,4.7349,4.735,4.7319,4.7315,4.7312,4.7309,4.7412,4.7419,4.7426,4.7539,0,0,4.7449,4.7452,0,0,0,0,0,0,0,0,4.7092,4.7108,4.7236,4.7237,4.7239,4.7316,4.73,4.7413,4.732,4.7288,4.7311,4.7307,4.7384,4.7394,4.7422,4.7544,4.7548,4.7449,4.7454,4.7457,4.7459,0,0,0,0,0,0,0,4.7085,4.7103,4.728,4.7238,4.7239,4.7229,4.724,4.7321,4.7353,4.729,4.7288,4.7302,4.7385,4.7415,4.7424,4.755,4.7449,4.7456,4.746,4.7463,4.7766,4.777,0,0,0,0,0,0,4.7078,4.7097,4.7277,4.7284,4.7156,4.7236,4.7249,4.7294,4.7353,4.7358,4.7305,4.73,4.7404,4.7415,4.7427,4.7561,4.7457,4.7464,4.7468,4.7763,4.7767,4.7771,0,0,0,0,0,0,4.7073,4.7094,4.7272,4.719,4.7212,4.7244,4.7295,4.7298,4.7328,4.7364,4.7368,4.733,4.7402,4.7417,4.7511,4.7564,4.7467,4.7474,4.7759,4.7764,4.7769,4.7831,0,0,0,0,0,0,4.7066,4.7092,4.7138,4.7191,4.7216,4.7358,4.7298,4.7303,4.7342,4.7337,4.7389,4.7394,4.74,4.7501,4.7519,4.7573,4.7479,4.7754,4.7761,4.7768,4.7824,4.7837,4.7849,0,0,0,0,0,4.7057,4.7149,4.714,4.7162,4.7274,4.7361,4.7375,4.7382,4.7346,4.739,4.7413,4.7392,4.7556,4.751,4.753,4.7587,4.775,4.7759,4.7767,4.7818,4.7835,4.7849,0,0,0,0,0,0,4.7098,4.7156,4.7147,4.726,4.7306,4.7355,4.7411,4.74,4.7455,4.7448,4.7452,4.7464,4.756,4.7583,4.7532,4.7698,4.7647,4.766,4.7679,4.7696,4.7708,4.77,4.7485,0,0,0,0,0,4.7121,4.719,4.7235,4.733,4.7354,4.7379,4.7417,4.7419,4.7466,4.7484,4.7514,4.7557,4.7618,4.7658,4.7717,4.7827,4.7837,4.7876,4.7889,4.7899,4.7909,4.7967,4.7985,4.7799,4.7798,4.7798,0,0,4.7168,4.7208,4.725,4.734,4.7376,4.7443,4.7395,4.747,4.7519,4.7494,4.7586,4.7609,4.7657,4.776,4.7807,4.7782,4.7963,4.7909,4.7917,4.7922,4.7977,4.7995,4.8011,4.7804,4.7803,4.7802,0,0,4.7288,4.7326,4.7409,4.7446,4.7502,4.7518,4.7538,4.7589,4.7604,4.7696,4.7679,4.7736,4.7842,4.7877,4.7909,4.8041,4.8023,4.8059,4.8125,4.8181,4.8196,4.8209,4.8254,4.827,4.807,4.807,4.807,0,4.7338,4.7443,4.7452,4.7528,4.7566,4.755,4.7632,4.7667,4.7738,4.7763,4.7735,4.7867,4.7899,4.8008,4.8041,4.8068,4.8088,4.8053,4.8194,4.8207,4.8219,4.8262,4.8279,4.8074,4.8074,4.8073,4.8073,0,4.75,4.7573,4.7632,4.7704,4.7749,4.7828,4.7846,4.789,4.7888,4.7906,4.7998,4.8036,4.8101,4.8127,4.8125,4.8236,4.8218,4.8192,4.8141,4.824,4.8281,4.8297,4.808,4.8078,4.8077,4.8076,0,0,4.7649,4.7725,4.7747,4.7778,4.7838,4.7893,4.7969,4.8035,4.8072,4.8121,4.8183,4.8273,4.8249,4.8285,4.8286,4.8336,4.8436,4.8303,4.8304,4.8325,4.8557,4.8576,4.8595,4.8425,4.8428,4.843,4.8553,0,4.7772,4.791,4.792,4.8043,4.8109,4.8094,4.816,4.8202,4.822,4.8276,4.8295,4.8358,4.8322,4.8344,4.8392,4.8413,4.8482,4.8405,4.8479,4.8482,4.8467,4.8616,4.8636,4.875,4.8569,4.8571,4.8573,0,4.7935,4.7991,4.8122,4.8172,4.8199,4.8259,4.8319,4.8374,4.842,4.843,4.847,4.8465,4.8539,4.8487,4.8589,4.8536,4.8567,4.8581,4.8586,4.8592,4.8533,4.8624,4.8786,4.8803,4.8599,4.8597,4.8595,0,4.8028,4.8136,4.8228,4.8255,4.8317,4.8358,4.8385,4.8429,4.8467,4.8519,4.8543,4.8603,4.8634,4.8679,4.8688,4.8649,4.8789,4.8737,4.8796,4.8796,4.8825,4.8823,4.8992,4.8848,4.8847,4.8847,4.8847,0,4.8164,4.8243,4.827,4.8327,4.8414,4.8424,4.851,4.8533,4.8572,4.863,4.862,4.8674,4.8683,4.8738,4.8746,4.8827,4.8842,4.8849,4.885,4.885,4.8849,4.8869,4.886,4.8852,4.8851,4.885,4.8849,0,4.8282,4.8304,4.8402,4.8453,4.8467,4.8529,4.857,4.8622,4.864,4.8713,4.8731,4.8756,4.8821,4.8835,4.891,4.8915,4.9012,4.9005,4.8997,4.8996,4.9053,4.9047,4.924,4.9265,4.9106,4.9107,4.9109,0,4.8367,4.8428,4.8485,4.8525,4.8554,4.8618,4.8658,4.8669,4.871,4.8767,4.8812,4.8876,4.8927,4.903,4.9053,4.9111,4.9104,4.9168,4.9113,4.911,4.9103,4.9099,4.9104,4.9178,4.918,4.9181,4.9183,0,4.8514,4.8522,4.8581,4.8644,4.8693,4.8742,4.8789,4.8821,4.8838,4.8884,4.8951,4.8991,4.907,4.9132,4.9189,4.9213,4.92,4.92,4.9216,4.9216,4.9208,4.9211,4.9024,4.9195,4.9194,4.9193,4.9192,4.9192,4.8617,4.867,4.8719,4.8784,4.8821,4.8865,4.8917,4.8941,4.8998,4.9065,4.9067,4.9139,4.9182,4.9258,4.9285,4.934,4.932,4.9344,4.9349,4.9355,4.9359,4.9201,4.935,4.935,4.935,4.9349,4.9349,0,4.8762,4.8793,4.8853,4.892,4.8972,4.8958,4.9009,4.9051,4.9116,4.9159,4.921,4.9286,4.9346,4.9375,4.9434,4.9472,4.9467,4.9486,4.9483,4.9488,4.9375,4.9354,4.9489,4.9489,4.9489,4.9489,4.9489,4.9489,4.8843,4.8932,4.8945,4.9051,4.908,4.9154,4.9184,4.9223,4.9257,4.9343,4.9394,4.9413,4.9449,4.9511,4.9564,4.9571,4.9592,4.9614,4.9617,4.9511,4.9496,4.9483,4.9463,4.9619,4.9619,4.9726,4.9727,4.9727]}]]